Location: Sawmill Trailhead
(33.5800°N, 116.4497°W)
Time: 11:49:55
(UTC-08:00)

Amateur Radio Satellites - All Passes

Search period start: 02 December 2016 11:19
Search period end: 03 December 2016 11:19
Location: Sawmill Trailhead, 33.5800°N, 116.4497°W

Satellite Date Start Highest point End Downlink Frequencies (MHz)
Time Altitude Azimuth
DX 1 02 Dec 11:34:34 11:38:19 27° 97° (E) 11:42:04 434.975-435.025
AO-85 02 Dec 11:39:49 11:43:40 51° 59° (ENE) 11:47:25 145.980
Cosmos 2499 02 Dec 11:40:27 11:49:00 61° 80° (E) 11:56:53 435.465 / 435.565
ESTCUBE 1 02 Dec 11:41:33 11:45:49 44° 287° (WNW) 11:50:07 437.505/2401.250
NANOSAT C BR1 02 Dec 11:46:43 11:49:36 18° 265° (W) 11:52:28 145.865
BUGSAT 1 02 Dec 11:48:24 11:52:27 49° 260° (W) 11:56:34 437.445
QB50P2 02 Dec 11:49:00 11:51:21 14° 266° (W) 11:53:44 145.880/145.840
DANDE 02 Dec 11:49:07 11:50:34 11° 282° (WNW) 11:51:55 436.750
POLYITAN 1 02 Dec 11:49:28 11:51:59 15° 266° (W) 11:54:32 437.675
UKube-1 02 Dec 11:49:58 11:53:48 30° 98° (E) 11:57:36 .
50 SAT 02 Dec 11:51:56 11:55:29 87° 104° (ESE) 11:59:02 437.505
Gurwin Techsat 1B 02 Dec 11:52:19 11:55:46 18° 66° (ENE) 11:59:13 435.225
RS-15 02 Dec 11:53:21 11:58:25 13° 347° (NNW) 12:03:32 29.354- 29.394
JUGNU 02 Dec 12:00:32 12:03:51 15° 168° (SSE) 12:07:10 437.505
AISAT 02 Dec 12:05:46 12:10:10 57° 285° (WNW) 12:14:32 437.250
SPROUT 02 Dec 12:11:07 12:15:26 80° 283° (WNW) 12:19:42 437.525
TISAT 1 02 Dec 12:14:03 12:16:13 14° 94° (E) 12:18:21 437.305
JAS-2 02 Dec 12:17:10 12:19:40 12° 267° (W) 12:22:05 435.910
PCSat 02 Dec 12:23:28 12:28:35 43° 300° (WNW) 12:33:46 145.827
Oscar 19 02 Dec 12:27:37 12:32:43 82° 76° (ENE) 12:37:52 437.125/150
VELOX 1 02 Dec 12:43:43 12:47:13 23° 290° (WNW) 12:50:42 145.980
CUBEBUG 1 02 Dec 12:44:36 12:47:07 15° 293° (WNW) 12:49:37 437.445
ITAMSAT 1 02 Dec 12:49:54 12:52:26 14° 64° (ENE) 12:54:57 435.822/435.867
GONETS M04 02 Dec 13:04:17 13:12:22 45° 271° (W) 13:20:28
DX 1 02 Dec 13:11:00 13:14:19 21° 291° (WNW) 13:17:36 434.975-435.025
SWISSCUBE 02 Dec 13:20:19 13:23:24 17° 94° (E) 13:26:28 437.505
BEESAT 02 Dec 13:24:50 13:27:54 17° 94° (E) 13:30:57 436.000
UKube-1 02 Dec 13:26:32 13:29:35 19° 291° (WNW) 13:32:37 .
Gurwin Techsat 1B 02 Dec 13:30:09 13:35:16 49° 260° (W) 13:40:26 435.225
SRMSAT 02 Dec 13:33:40 13:34:45 10° 163° (SSE) 13:35:49 437.500
Cosmos 2499 02 Dec 13:34:59 13:41:17 23° 278° (W) 13:47:17 435.465 / 435.565
BEESAT 3 02 Dec 13:39:19 13:40:42 11° 49° (NE) 13:42:06 437.485
JUGNU 02 Dec 13:47:53 13:52:13 21° 178° (S) 13:56:30 437.505
TISAT 1 02 Dec 13:48:02 13:51:57 38° 287° (WNW) 13:55:50 437.305
ITUPSAT 1 02 Dec 13:48:45 13:52:58 31° 98° (E) 13:57:08 437.325
AO-7 02 Dec 13:52:07 13:59:56 48° 66° (ENE) 14:07:46 29.400- 29.500
AUBIESAT-1 02 Dec 14:00:51 14:05:15 44° 103° (ESE) 14:09:28 437.475
M-CUBED/EXP-1 PRIME 02 Dec 14:09:21 14:14:02 71° 106° (ESE) 14:18:32 437.505
RS-15 02 Dec 14:11:14 14:18:48 18° 26° (NNE) 14:26:15 29.354- 29.394
ITAMSAT 1 02 Dec 14:26:08 14:31:18 63° 258° (WSW) 14:36:30 435.822/435.867
SWISSCUBE 02 Dec 14:56:53 15:01:17 39° 288° (WNW) 15:05:40 437.505
BEESAT 02 Dec 15:01:22 15:05:47 39° 288° (WNW) 15:10:10 436.000
O/OREOS (USA 219) 02 Dec 15:03:31 15:05:40 13° 99° (E) 15:07:49 437.305
MOZHAYETS 4 02 Dec 15:05:36 15:10:02 50° 100° (E) 15:14:26
BEESAT 3 02 Dec 15:14:45 15:18:39 55° 245° (WSW) 15:22:31 437.485
SRMSAT 02 Dec 15:19:14 15:23:12 19° 172° (S) 15:27:11 437.500
ITUPSAT 1 02 Dec 15:26:56 15:30:34 22° 291° (WNW) 15:34:12 437.325
ISS 02 Dec 15:30:34 15:31:32 11° 126° (SE) 15:32:31 145.825
BEESAT 2 02 Dec 15:35:06 15:39:08 79° 242° (WSW) 15:43:07 435.950
AUBIESAT-1 02 Dec 15:36:22 15:39:12 16° 298° (WNW) 15:42:00 437.475
JUGNU 02 Dec 15:36:35 15:40:34 19° 188° (S) 15:44:32 437.505
GOMX 1 02 Dec 15:42:54 15:44:28 12° 64° (ENE) 15:46:06 467.674
BRITE-PL 02 Dec 15:44:18 15:47:59 30° 71° (ENE) 15:51:48 437.365/2234.400
AO-7 02 Dec 15:45:34 15:52:45 33° 261° (W) 16:00:01 29.400- 29.500
M-CUBED/EXP-1 PRIME 02 Dec 15:46:26 15:47:49 11° 300° (WNW) 15:49:10 437.505
Cubesat XI-IV 02 Dec 15:59:04 16:01:20 13° 63° (ENE) 16:03:37 437.490
KKS-1 02 Dec 16:04:50 16:09:20 84° 282° (WNW) 16:13:48 437.445
NOAA 15 02 Dec 16:08:58 16:12:27 18° 66° (ENE) 16:15:56 137.62
HORYU 2 02 Dec 16:13:20 16:17:46 63° 75° (ENE) 16:22:13 437.375
DOVE 4 02 Dec 16:14:03 16:15:10 11° 63° (ENE) 16:16:16 437.250
STARS 02 Dec 16:21:57 16:26:21 67° 101° (ESE) 16:30:43 437.465
RS-15 02 Dec 16:22:56 16:35:02 55° 55° (NE) 16:46:39 29.354- 29.394
CUBESAT XI-V 02 Dec 16:34:21 16:38:59 64° 101° (E) 16:43:36 437.345
O/OREOS (USA 219) 02 Dec 16:40:13 16:44:36 45° 293° (WNW) 16:48:59 437.305
MOZHAYETS 4 02 Dec 16:44:39 16:46:42 13° 294° (WNW) 16:48:45
NOAA 18 02 Dec 16:47:39 16:52:08 26° 67° (ENE) 16:56:40 137.9125
ISS 02 Dec 17:04:28 17:07:40 50° 319° (NW) 17:10:54 145.825
SRMSAT 02 Dec 17:07:25 17:11:43 21° 182° (S) 17:16:01 437.500
Cosmos 2491 02 Dec 17:07:28 17:14:38 28° 73° (ENE) 17:21:46 435.465 / 435.565
CUTE-I 02 Dec 17:10:45 17:16:04 68° 74° (ENE) 17:21:25 437.470
GOMX 1 02 Dec 17:17:41 17:21:56 54° 261° (W) 17:26:30 467.674
BRITE-PL 02 Dec 17:23:54 17:26:34 16° 267° (W) 17:29:17 437.365/2234.400
AIST 2 02 Dec 17:27:41 17:31:37 37° 57° (ENE) 17:35:32 435.215
JUGNU 02 Dec 17:27:50 17:28:51 10° 197° (SSW) 17:29:53 437.505
LilacSat-2 02 Dec 17:32:22 17:36:11 56° 260° (W) 17:39:59 437.200
YUBILEINY 02 Dec 17:33:54 17:39:10 18° 80° (E) 17:44:26 435.215
Cubesat XI-IV 02 Dec 17:35:23 17:40:44 71° 258° (WSW) 17:46:07 437.490
CUTE 1.7 + AOD 2 02 Dec 17:39:09 17:40:09 11° 67° (ENE) 17:41:09 437.475
NOAA 15 02 Dec 17:46:49 17:51:49 46° 260° (W) 17:56:51 137.62
DOVE 4 02 Dec 17:47:33 17:52:05 67° 260° (W) 17:56:58 437.250
CANX-2 02 Dec 17:54:03 17:57:08 20° 70° (ENE) 18:00:12 2200.000
CINEMA 3 02 Dec 17:57:17 18:01:41 36° 72° (ENE) 18:06:13 145.822/145.860
CUBESAT XI-V 02 Dec 18:14:41 18:15:45 11° 295° (WNW) 18:16:50 437.345
HO-68 02 Dec 18:19:58 18:26:53 55° 70° (ENE) 18:33:50 435.675
AAUSAT CUBESAT 2 02 Dec 18:21:31 18:22:32 11° 67° (ENE) 18:23:33 437.432
SEEDS 02 Dec 18:27:08 18:30:40 27° 72° (ENE) 18:34:12 437.485
NOAA 18 02 Dec 18:27:35 18:32:34 35° 262° (W) 18:37:36 137.9125
RS-15 02 Dec 18:36:06 18:47:02 40° 254° (WSW) 18:57:38 29.354- 29.394
STRAND 1 02 Dec 18:37:48 18:42:36 40° 99° (E) 18:47:21 437.568
AIST 1 02 Dec 18:41:10 18:42:24 11° 85° (E) 18:43:39
CUBEBUG 2 02 Dec 18:41:50 18:45:49 27° 71° (ENE) 18:49:47 437.445
COMPASS 1 02 Dec 18:44:57 18:48:31 29° 72° (ENE) 18:52:04 437.405
ZACube-1 02 Dec 18:48:59 18:50:27 11° 66° (ENE) 18:51:55 437.345
CUTE-I 02 Dec 18:54:35 18:56:29 12° 268° (W) 18:58:25 437.470
SRMSAT 02 Dec 18:56:55 19:00:12 15° 192° (SSW) 19:03:30 437.500
FUNcube-1 02 Dec 18:58:08 19:00:22 14° 67° (ENE) 19:02:35 145.935
Cosmos 2491 02 Dec 19:03:24 19:11:46 54° 270° (W) 19:20:07 435.465 / 435.565
AIST 2 02 Dec 19:07:12 19:09:45 16° 251° (WSW) 19:12:19 435.215
Cosmos 2504 02 Dec 19:08:03 19:15:23 39° 86° (E) 19:23:09 435.465 / 435.565
CUTE 1.7 + AOD 2 02 Dec 19:11:22 19:15:29 51° 260° (W) 19:19:37 437.475
YUBILEINY 02 Dec 19:26:11 19:34:52 77° 277° (W) 19:43:38 435.215
CANX-2 02 Dec 19:29:12 19:32:47 26° 263° (W) 19:36:21 2200.000
UWE-3 02 Dec 19:31:45 19:36:21 62° 76° (ENE) 19:40:57 435.000/436.395/437.385
Oscar 11 02 Dec 19:32:05 19:35:51 30° 72° (ENE) 19:39:38 145.826/435.025
CINEMA 3 02 Dec 19:35:23 19:38:51 20° 267° (W) 19:42:26 145.822/145.860
DELFI C3 02 Dec 19:52:04 19:54:26 16° 69° (ENE) 19:56:47 145.870
AAUSAT CUBESAT 2 02 Dec 19:53:34 19:57:32 48° 261° (W) 20:01:31 437.432
SEEDS 02 Dec 20:03:22 20:06:19 19° 265° (W) 20:09:15 437.485
SO-50 02 Dec 20:06:06 20:10:48 61° 116° (ESE) 20:15:30 436.795
HO-68 02 Dec 20:09:24 20:14:51 23° 265° (W) 20:20:20 435.675
AIST 1 02 Dec 20:15:25 20:19:29 44° 280° (W) 20:23:38
STRAND 1 02 Dec 20:17:50 20:21:26 20° 293° (WNW) 20:25:01 437.568
CUBEBUG 2 02 Dec 20:18:23 20:22:17 25° 264° (W) 20:26:14 437.445
COMPASS 1 02 Dec 20:21:18 20:24:02 17° 265° (W) 20:26:47 437.405
ZACube-1 02 Dec 20:21:41 20:26:11 58° 260° (W) 20:30:41 437.345
FUNcube-1 02 Dec 20:31:44 20:36:09 48° 261° (W) 20:40:32 145.935
CUSAT 1 02 Dec 20:34:31 20:38:05 79° 81° (E) 20:42:49 437.405
DANDE 02 Dec 20:45:12 20:46:45 14° 80° (E) 20:48:26 436.750
HUMSAT D 02 Dec 20:47:34 20:51:33 40° 74° (ENE) 20:55:30 437.325/437.525
Cosmos 2504 02 Dec 21:01:12 21:08:37 38° 285° (WNW) 21:16:33 435.465 / 435.565
TIGRISAT 02 Dec 21:04:30 21:07:26 17° 94° (E) 21:10:17 435.000
ANTELSAT 02 Dec 21:04:49 21:07:54 19° 94° (E) 21:10:56 437.575/2403.000
PRISM 02 Dec 21:08:16 21:12:23 66° 285° (WNW) 21:16:31 437.425
Oscar 11 02 Dec 21:08:59 21:11:58 18° 265° (W) 21:14:58 145.826/435.025
UWE-3 02 Dec 21:12:26 21:13:06 10° 269° (W) 21:13:46 435.000/436.395/437.385
PCSat 02 Dec 21:14:59 21:20:22 63° 63° (ENE) 21:25:43 145.827
DELFI C3 02 Dec 21:25:32 21:28:58 29° 263° (W) 21:32:25 145.870
YUBILEINY 02 Dec 21:30:21 21:33:07 12° 296° (WNW) 21:35:53 435.215
SO-50 02 Dec 21:48:55 21:51:38 15° 311° (NW) 21:54:20 436.795
CUBEBUG 1 02 Dec 21:59:40 22:02:53 21° 69° (ENE) 22:06:08 437.445
VELOX 1 02 Dec 22:01:44 22:04:11 15° 67° (ENE) 22:06:38 145.980
UNISAT 6 02 Dec 22:08:39 22:13:03 70° 283° (WNW) 22:17:20 437.425
QB50P1 02 Dec 22:17:22 22:18:48 11° 93° (E) 22:20:13 145.935-145.965
50 SAT 02 Dec 22:24:16 22:26:38 17° 71° (ENE) 22:29:02 437.505
DUCHIFAT 1 02 Dec 22:24:21 22:25:51 12° 93° (E) 22:27:23 145.980
HUMSAT D 02 Dec 22:25:17 22:27:16 13° 267° (W) 22:29:14 437.325/437.525
DX 1 02 Dec 22:27:20 22:29:48 15° 67° (ENE) 22:32:17 434.975-435.025
DANDE 02 Dec 22:28:01 22:29:16 12° 265° (W) 22:30:37 436.750
ESTCUBE 1 02 Dec 22:36:30 22:40:59 82° 259° (WSW) 22:45:28 437.505/2401.250
POPSAT HIP 1 02 Dec 22:36:57 22:40:08 20° 95° (E) 22:43:16 437.405
TIGRISAT 02 Dec 22:40:14 22:44:08 32° 288° (WNW) 22:47:58 435.000
ANTELSAT 02 Dec 22:40:47 22:44:36 29° 289° (WNW) 22:48:21 437.575/2403.000
UKube-1 02 Dec 22:41:35 22:44:12 16° 68° (ENE) 22:46:50 .
AISAT 02 Dec 22:58:37 23:02:59 75° 76° (ENE) 23:07:26 437.250
SPROUT 02 Dec 23:00:19 23:04:22 43° 74° (ENE) 23:08:28 437.525
PCSat 02 Dec 23:00:33 23:03:09 14° 257° (WSW) 23:05:44 145.827
JAS-2 02 Dec 23:25:56 23:31:06 77° 285° (WNW) 23:36:32 435.910
NANOSAT C BR1 02 Dec 23:33:23 23:37:38 81° 282° (WNW) 23:41:49 145.865
BUGSAT 1 02 Dec 23:34:22 23:38:06 30° 98° (E) 23:41:45 437.445
CUBEBUG 1 02 Dec 23:35:16 23:38:57 27° 263° (W) 23:42:42 437.445
QB50P2 02 Dec 23:35:40 23:39:52 64° 285° (WNW) 23:44:03 145.880/145.840
ISS 02 Dec 23:35:45 23:38:36 26° 36° (NE) 23:41:26 145.825
VELOX 1 02 Dec 23:36:06 23:40:14 41° 261° (W) 23:44:25 145.980
POLYITAN 1 02 Dec 23:36:18 23:40:31 68° 285° (WNW) 23:44:41 437.675
QB50P1 02 Dec 23:50:42 23:54:45 45° 286° (WNW) 23:58:46 145.935-145.965
50 SAT 02 Dec 23:57:10 23:59:47 20° 264° (W) 00:02:25 437.505
DUCHIFAT 1 02 Dec 23:57:43 00:01:43 43° 286° (WNW) 00:05:42 145.980
DX 1 03 Dec 00:01:35 00:05:37 39° 261° (W) 00:09:42 434.975-435.025
GONETS M04 03 Dec 00:03:31 00:11:37 45° 89° (E) 00:19:41
PHONESAT 2.4 03 Dec 00:06:57 00:08:55 18° 145° (SE) 00:10:53 2401.200-2431.200
Cosmos 2499 03 Dec 00:10:31 00:18:32 55° 90° (E) 00:27:02 435.465 / 435.565
POPSAT HIP 1 03 Dec 00:12:18 00:15:50 26° 289° (WNW) 00:19:19 437.405
UKube-1 03 Dec 00:15:58 00:19:54 35° 261° (W) 00:23:53 .
SWISSCUBE 03 Dec 00:23:57 00:26:14 13° 65° (ENE) 00:28:30 437.505
BEESAT 03 Dec 00:28:25 00:30:40 13° 65° (ENE) 00:32:55 436.000
TISAT 1 03 Dec 00:34:50 00:39:03 89° 78° (ENE) 00:43:19 437.305
SPROUT 03 Dec 00:38:41 00:40:28 12° 267° (W) 00:42:15 437.525
AUBIESAT-1 03 Dec 00:42:56 00:46:16 26° 65° (ENE) 00:49:47 437.475
Oscar 19 03 Dec 00:43:23 00:48:16 40° 99° (E) 00:53:07 437.125/150
M-CUBED/EXP-1 PRIME 03 Dec 00:51:39 00:55:19 41° 68° (ENE) 00:59:18 437.505
ITUPSAT 1 03 Dec 00:51:54 00:55:42 24° 69° (ENE) 00:59:29 437.325
BUGSAT 1 03 Dec 01:10:24 01:13:10 17° 291° (WNW) 01:15:55 437.445
ISS 03 Dec 01:12:19 01:15:01 23° 231° (SW) 01:17:40 145.825
O/OREOS (USA 219) 03 Dec 01:16:32 01:18:53 14° 59° (ENE) 01:21:13 437.305
PHONESAT 2.4 03 Dec 01:41:26 01:44:02 48° 339° (NNW) 01:46:38 2401.200-2431.200
AO-85 03 Dec 01:49:13 01:54:07 51° 115° (ESE) 01:58:43 145.980
Gurwin Techsat 1B 03 Dec 01:50:12 01:55:34 88° 273° (W) 02:00:52 435.225
SWISSCUBE 03 Dec 01:58:50 02:03:30 54° 259° (W) 02:08:11 437.505
AO-7 03 Dec 01:59:50 02:05:14 18° 94° (E) 02:10:36 29.400- 29.500
GONETS M04 03 Dec 02:00:47 02:08:27 34° 285° (WNW) 02:16:09
BEESAT 03 Dec 02:03:15 02:07:56 54° 259° (W) 02:12:37 436.000
MOZHAYETS 4 03 Dec 02:03:37 02:07:37 30° 72° (ENE) 02:11:36
Cosmos 2499 03 Dec 02:05:02 02:12:00 28° 288° (WNW) 02:19:19 435.465 / 435.565
AUBIESAT-1 03 Dec 02:17:41 02:20:37 20° 261° (W) 02:23:44 437.475
Oscar 19 03 Dec 02:23:30 02:27:15 21° 293° (WNW) 02:30:59 437.125/150
M-CUBED/EXP-1 PRIME 03 Dec 02:28:29 02:30:03 12° 264° (W) 02:31:39 437.505
ITUPSAT 1 03 Dec 02:29:11 02:33:20 29° 262° (W) 02:37:30 437.325
ITAMSAT 1 03 Dec 02:43:02 02:48:11 65° 102° (ESE) 02:53:18 435.822/435.867
O/OREOS (USA 219) 03 Dec 02:54:15 02:58:30 45° 255° (WSW) 03:02:45 437.305
KKS-1 03 Dec 02:58:36 03:02:55 52° 74° (ENE) 03:07:16 437.445
STARS 03 Dec 03:14:33 03:18:33 35° 72° (ENE) 03:22:34 437.465
PHONESAT 2.4 03 Dec 03:17:40 03:19:40 18° 355° (N) 03:21:40 2401.200-2431.200
AO-85 03 Dec 03:31:31 03:34:45 17° 308° (NW) 03:37:51 145.980
CUBESAT XI-V 03 Dec 03:33:42 03:37:56 38° 73° (ENE) 03:42:10 437.345
MOZHAYETS 4 03 Dec 03:41:17 03:44:44 21° 265° (W) 03:48:12
AO-7 03 Dec 03:50:14 03:58:37 78° 289° (WNW) 04:06:57 29.400- 29.500
BRITE-PL 03 Dec 03:52:24 03:56:10 19° 94° (E) 04:00:01 437.365/2234.400
HORYU 2 03 Dec 04:09:32 04:12:17 16° 95° (E) 04:15:00 437.375
ITAMSAT 1 03 Dec 04:24:44 04:27:02 13° 296° (WNW) 04:29:21 435.822/435.867
KKS-1 03 Dec 04:38:30 04:39:44 11° 268° (W) 04:40:57 437.445
SO-50 03 Dec 04:42:18 04:45:29 19° 51° (NE) 04:48:37 436.795
STARS 03 Dec 04:52:07 04:54:56 17° 265° (W) 04:57:47 437.465
PHONESAT 2.4 03 Dec 04:53:15 04:55:27 23° 11° (NNE) 04:57:40 2401.200-2431.200
BEESAT 3 03 Dec 05:00:47 05:04:37 63° 116° (ESE) 05:08:30 437.485
LilacSat-2 03 Dec 05:10:24 05:13:08 19° 95° (E) 05:15:51 437.200
Cosmos 2504 03 Dec 05:10:46 05:11:34 10° 62° (ENE) 05:12:22 435.465 / 435.565
CUBESAT XI-V 03 Dec 05:12:33 05:15:24 16° 266° (W) 05:18:14 437.345
NOAA 18 03 Dec 05:14:42 05:17:42 15° 93° (E) 05:20:42 137.9125
GOMX 1 03 Dec 05:22:31 05:27:58 63° 101° (E) 05:33:22 467.674
BEESAT 2 03 Dec 05:22:46 05:26:30 46° 115° (ESE) 05:30:19 435.950
BRITE-PL 03 Dec 05:29:32 05:34:43 49° 286° (WNW) 05:40:07 437.365/2234.400
CUTE-I 03 Dec 05:32:12 05:37:07 37° 98° (E) 05:42:00 437.470
YUBILEINY 03 Dec 05:41:34 05:49:55 45° 78° (ENE) 05:58:13 435.215
HORYU 2 03 Dec 05:44:51 05:48:54 36° 288° (WNW) 05:52:55 437.375
AO-7 03 Dec 05:45:57 05:50:01 15° 307° (NW) 05:54:05 29.400- 29.500
STRAND 1 03 Dec 05:49:41 05:54:26 39° 71° (ENE) 05:59:10 437.568
DOVE 4 03 Dec 05:50:16 05:55:24 49° 99° (E) 06:00:23 437.250
HO-68 03 Dec 05:56:20 05:58:00 11° 90° (E) 05:59:39 435.675
Cubesat XI-IV 03 Dec 05:56:46 06:02:05 66° 102° (ESE) 06:07:21 437.490
CINEMA 3 03 Dec 05:58:27 06:00:09 12° 90° (E) 06:01:50 145.822/145.860
Cosmos 2491 03 Dec 06:03:19 06:11:07 37° 87° (E) 06:18:51 435.465 / 435.565
NOAA 15 03 Dec 06:05:39 06:10:57 89° 285° (WNW) 06:16:14 137.62
SO-50 03 Dec 06:21:53 06:26:05 39° 246° (WSW) 06:30:12 436.795
AIST 1 03 Dec 06:26:35 06:30:24 28° 78° (ENE) 06:34:13
PHONESAT 2.4 03 Dec 06:28:16 06:30:55 76° 206° (SSW) 06:33:34 2401.200-2431.200
RS-15 03 Dec 06:40:22 06:51:19 51° 109° (ESE) 07:02:47 29.354- 29.394
BEESAT 3 03 Dec 06:42:17 06:42:37 10° 312° (NW) 06:42:57 437.485
LilacSat-2 03 Dec 06:44:25 06:47:18 21° 289° (WNW) 06:50:11 437.200
NOAA 18 03 Dec 06:53:14 06:58:40 59° 288° (WNW) 07:04:03 137.9125
Cosmos 2504 03 Dec 06:57:55 07:06:42 68° 82° (E) 07:14:56 435.465 / 435.565
CUTE 1.7 + AOD 2 03 Dec 07:00:16 07:04:06 34° 98° (E) 07:07:56 437.475
GOMX 1 03 Dec 07:02:24 07:05:25 15° 294° (WNW) 07:08:28 467.674
BEESAT 2 03 Dec 07:02:39 07:04:32 13° 310° (NW) 07:06:27 435.950
CUTE-I 03 Dec 07:12:48 07:16:53 23° 293° (WNW) 07:20:57 437.470
CANX-2 03 Dec 07:17:17 07:21:29 68° 100° (E) 07:25:40 2200.000
AIST 2 03 Dec 07:22:05 07:25:04 20° 110° (ESE) 07:28:04 435.215
UWE-3 03 Dec 07:27:03 07:29:40 16° 93° (E) 07:32:13 435.000/436.395/437.385
DOVE 4 03 Dec 07:29:08 07:32:35 18° 293° (WNW) 07:35:59 437.250
STRAND 1 03 Dec 07:29:57 07:33:40 20° 265° (W) 07:37:24 437.568
CINEMA 3 03 Dec 07:32:54 07:37:38 55° 285° (WNW) 07:42:08 145.822/145.860
YUBILEINY 03 Dec 07:38:46 07:46:22 34° 274° (W) 07:53:58 435.215
Cubesat XI-IV 03 Dec 07:39:02 07:41:31 13° 296° (WNW) 07:44:00 437.490
HO-68 03 Dec 07:39:15 07:46:30 84° 105° (ESE) 07:53:43 435.675
AAUSAT CUBESAT 2 03 Dec 07:39:41 07:43:25 32° 98° (E) 07:47:08 437.432
SEEDS 03 Dec 07:49:34 07:53:45 86° 286° (WNW) 07:57:57 437.485
PRISM 03 Dec 07:53:26 07:57:19 47° 74° (ENE) 08:01:14 437.425
Cosmos 2491 03 Dec 07:59:36 08:07:43 41° 283° (WNW) 08:15:52 435.465 / 435.565
TIGRISAT 03 Dec 08:00:50 08:02:12 11° 65° (ENE) 08:03:33 435.000
ANTELSAT 03 Dec 08:00:58 08:02:46 12° 66° (ENE) 08:04:33 437.575/2403.000
AIST 1 03 Dec 08:04:43 08:07:44 18° 272° (W) 08:10:45
COMPASS 1 03 Dec 08:06:14 08:10:24 83° 282° (WNW) 08:14:34 437.405
CUBEBUG 2 03 Dec 08:12:37 08:17:03 83° 283° (WNW) 08:21:18 437.445
ZACube-1 03 Dec 08:14:26 08:18:19 34° 98° (E) 08:22:05 437.345
FUNcube-1 03 Dec 08:23:56 08:27:56 41° 98° (E) 08:31:51 145.935
CUTE 1.7 + AOD 2 03 Dec 08:37:05 08:39:37 16° 291° (WNW) 08:42:10 437.475
RS-15 03 Dec 08:52:48 09:03:52 45° 309° (NW) 09:15:29 29.354- 29.394
Cosmos 2504 03 Dec 08:53:02 08:59:07 22° 279° (W) 09:05:00 435.465 / 435.565
Oscar 11 03 Dec 08:58:31 09:02:49 74° 283° (WNW) 09:07:06 145.826/435.025
AIST 2 03 Dec 08:59:46 09:03:19 28° 305° (NW) 09:06:56 435.215
UWE-3 03 Dec 09:02:19 09:06:11 33° 288° (WNW) 09:09:58 435.000/436.395/437.385
UNISAT 6 03 Dec 09:02:38 09:07:16 61° 75° (ENE) 09:11:54 437.425
DELFI C3 03 Dec 09:06:09 09:09:57 42° 99° (E) 09:13:43 145.870
AAUSAT CUBESAT 2 03 Dec 09:16:04 09:18:35 16° 291° (WNW) 09:21:07 437.432
HO-68 03 Dec 09:29:14 09:33:17 16° 301° (WNW) 09:37:21 435.675
TIGRISAT 03 Dec 09:33:38 09:38:17 64° 259° (W) 09:42:57 435.000
JAS-2 03 Dec 09:33:49 09:39:32 30° 70° (ENE) 09:44:42 435.910
CUSAT 1 03 Dec 09:34:13 09:38:00 58° 278° (W) 09:41:01 437.405
ANTELSAT 03 Dec 09:34:18 09:38:55 59° 259° (W) 09:43:33 437.575/2403.000
DANDE 03 Dec 09:47:25 09:52:43 44° 97° (E) 09:56:44 436.750
ZACube-1 03 Dec 09:51:46 09:54:15 15° 292° (WNW) 09:56:44 437.345
FUNcube-1 03 Dec 10:01:49 10:03:44 13° 293° (WNW) 10:05:40 145.935
Cosmos 2499 03 Dec 10:09:44 10:14:04 15° 65° (ENE) 10:18:16 435.465 / 435.565
HUMSAT D 03 Dec 10:10:03 10:14:03 58° 285° (WNW) 10:18:03 437.325/437.525
PCSat 03 Dec 10:12:16 10:14:55 14° 103° (ESE) 10:17:33 145.827
GONETS M04 03 Dec 10:20:19 10:25:30 17° 68° (ENE) 10:30:40
NANOSAT C BR1 03 Dec 10:21:14 10:25:14 41° 74° (ENE) 10:29:15 145.865
BUGSAT 1 03 Dec 10:21:30 10:23:35 14° 67° (ENE) 10:25:40 437.445
QB50P2 03 Dec 10:23:49 10:27:59 53° 75° (ENE) 10:32:10 145.880/145.840
POLYITAN 1 03 Dec 10:24:27 10:28:36 50° 75° (ENE) 10:32:46 437.675
AO-85 03 Dec 10:26:39 10:28:18 12° 49° (NE) 10:29:56 145.980
ESTCUBE 1 03 Dec 10:33:19 10:37:12 28° 97° (E) 10:41:04 437.505/2401.250
QB50P1 03 Dec 10:38:25 10:42:40 75° 77° (ENE) 10:46:57 145.935-145.965
DELFI C3 03 Dec 10:43:02 10:44:20 11° 292° (WNW) 10:45:38 145.870
UNISAT 6 03 Dec 10:43:25 10:44:16 10° 268° (W) 10:45:07 437.425
DUCHIFAT 1 03 Dec 10:44:48 10:49:02 76° 77° (ENE) 10:53:18 145.980
AISAT 03 Dec 10:53:35 10:56:48 19° 95° (E) 11:00:00 437.250
POPSAT HIP 1 03 Dec 10:59:40 11:03:54 60° 260° (W) 11:08:09 437.405
